Simultaneous Nadir Overpasses (SNOs) Predictions

Prediction of SNOs between GOES-14 and NPP Satellite Orbit:

Table of predicted SNOs for the next 14.0 days since TLE Epoch: 4/23/2022
Index Date Time (GOES-14) GOES-14 Lat,Lon NPP Lat,Lon Distance(km) Time Diff (sec)
1 04/23/2022 20:14:38 -0.12,-104.52 0.25,-102.73 203.31 80
2 04/25/2022 08:36:26 0.11,-104.45 0.90,-108.00 404.67 80
3 04/26/2022 08:20:20 0.12,-104.45 -0.10,-103.46 113.17 80
4 04/27/2022 20:42:17 -0.10,-104.55 -1.04,-108.77 481.24 80
5 04/28/2022 20:20:51 -0.11,-104.54 -0.04,-104.23 35.15 80
6 05/01/2022 08:23:52 0.10,-104.46 0.24,-104.96 57.13 80
7 05/02/2022 08:07:48 0.11,-104.47 -0.82,-100.44 460.94 80
8 05/03/2022 20:29:43 -0.09,-104.58 -0.36,-105.73 132.43 80
9 05/04/2022 20:08:17 -0.10,-104.57 0.64,-101.20 383.93 80
10 05/06/2022 08:30:04 0.08,-104.46 0.55,-106.46 227.92 80
